| time (UTC) | temp F | wind direction | speed MPH | gust MPH | rain 1hr in | rain 24hr in | rain mn in | humidity % | barometer mb |
| 20260510144600 | 62 | 116 | 0.0 | 6.0 | 0.00 | 0.64 | 0.01 | 79 | 1012.0 |
| 20260510144024 | 62 | 162 | 2.0 | 6.0 | 0.00 | 0.64 | 0.01 | 77 | 1012.1 |
| 20260510143526 | 62 | 266 | 0.0 | 3.0 | 0.00 | 0.64 | 0.01 | 80 | 1012.3 |
| 20260510143039 | 61 | 246 | 1.0 | 3.0 | 0.00 | 0.64 | 0.01 | 81 | 1012.3 |
| 20260510142525 | 60 | 160 | 1.0 | 3.0 | 0.00 | 0.64 | 0.01 | 81 | 1012.3 |
| 20260510142026 | 60 | 0 | 0.0 | 2.0 | 0.00 | 0.64 | 0.01 | 81 | 1012.2 |
| 20260510141537 | 60 | 234 | 1.0 | 2.0 | 0.00 | 0.64 | 0.01 | 80 | 1012.3 |
| 20260510141027 | 60 | 166 | 0.0 | 3.0 | 0.00 | 0.64 | 0.01 | 81 | 1012.4 |
| 20260510140532 | 60 | 235 | 0.0 | 3.0 | 0.00 | 0.64 | 0.01 | 79 | 1012.4 |
| 20260510140046 | 61 | 173 | 1.0 | 4.0 | 0.00 | 0.64 | 0.01 | 79 | 1012.4 |
| 20260510135524 | 61 | 141 | 0.0 | 4.0 | 0.00 | 0.68 | 0.01 | 80 | 1012.3 |
| 20260510135026 | 61 | 143 | 2.0 | 4.0 | 0.00 | 0.68 | 0.01 | 78 | 1012.4 |
| 20260510134552 | 61 | 54 | 1.0 | 4.0 | 0.00 | 0.68 | 0.01 | 84 | 1012.3 |
| 20260510134026 | 59 | 189 | 1.0 | 4.0 | 0.00 | 0.68 | 0.01 | 82 | 1012.3 |
| 20260510133528 | 59 | 85 | 0.0 | 2.0 | 0.00 | 0.68 | 0.01 | 84 | 1012.2 |
| 20260510133045 | 59 | 250 | 0.0 | 2.0 | 0.00 | 0.68 | 0.01 | 85 | 1012.3 |
| 20260510132527 | 58 | 260 | 0.0 | 2.0 | 0.00 | 0.68 | 0.01 | 86 | 1012.3 |
| 20260510132025 | 57 | 118 | 0.0 | 2.0 | 0.00 | 0.68 | 0.01 | 89 | 1012.2 |
| 20260510131543 | 56 | 224 | 0.0 | 2.0 | 0.00 | 0.68 | 0.01 | 90 | 1012.2 |
| 20260510131027 | 55 | 157 | 0.0 | 4.0 | 0.00 | 0.68 | 0.01 | 91 | 1012.2 |
| 20260510130526 | 55 | 131 | 0.0 | 4.0 | 0.00 | 0.68 | 0.01 | 92 | 1012.2 |
| 20260510130039 | 54 | 269 | 1.0 | 4.0 | 0.00 | 0.68 | 0.01 | 92 | 1012.4 |
| 20260510125525 | 54 | 216 | 0.0 | 3.0 | 0.00 | 0.69 | 0.01 | 93 | 1012.3 |
| 20260510125026 | 54 | 277 | 0.0 | 3.0 | 0.00 | 0.69 | 0.01 | 93 | 1012.3 |
| 20260510124537 | 54 | 316 | 0.0 | 1.0 | 0.00 | 0.69 | 0.01 | 94 | 1012.3 |
| 20260510124025 | 53 | 182 | 0.0 | 2.0 | 0.00 | 0.69 | 0.01 | 94 | 1012.2 |
| 20260510123525 | 53 | 0 | 0.0 | 2.0 | 0.00 | 0.69 | 0.01 | 94 | 1012.3 |
| 20260510123035 | 53 | 0 | 0.0 | 2.0 | 0.00 | 0.69 | 0.01 | 94 | 1012.4 |
| 20260510122523 | 53 | 306 | 0.0 | 2.0 | 0.00 | 0.69 | 0.01 | 95 | 1012.3 |
| 20260510122025 | 53 | 200 | 0.0 | 3.0 | 0.00 | 0.69 | 0.01 | 95 | 1012.3 |
| 20260510121542 | 53 | 0 | 0.0 | 4.0 | 0.00 | 0.69 | 0.01 | 95 | 1012.3 |
| 20260510121026 | 53 | 236 | 1.0 | 4.0 | 0.00 | 0.69 | 0.01 | 95 | 1012.1 |
| 20260510120526 | 53 | 137 | 1.0 | 3.0 | 0.00 | 0.69 | 0.01 | 96 | 1012.2 |
| 20260510120039 | 53 | 278 | 0.0 | 3.0 | 0.00 | 0.69 | 0.01 | 96 | 1012.2 |
| 20260510115526 | 53 | 277 | 0.0 | 3.0 | 0.00 | 0.69 | 0.01 | 96 | 1012.2 |
| 20260510115028 | 52 | 0 | 0.0 | 1.0 | 0.00 | 0.69 | 0.01 | 96 | 1012.2 |
| 20260510114602 | 52 | 141 | 0.0 | 1.0 | 0.00 | 0.69 | 0.01 | 96 | 1012.2 |
| 20260510114026 | 52 | 170 | 0.0 | 2.0 | 0.00 | 0.69 | 0.01 | 97 | 1012.1 |
| 20260510113528 | 52 | 125 | 0.0 | 2.0 | 0.00 | 0.69 | 0.01 | 97 | 1012.2 |
| 20260510113051 | 52 | 329 | 0.0 | 1.0 | 0.00 | 0.69 | 0.01 | 96 | 1012.3 |
| 20260510112525 | 52 | 328 | 0.0 | 1.0 | 0.00 | 0.69 | 0.01 | 97 | 1012.3 |
| 20260510112025 | 51 | 0 | 0.0 | 2.0 | 0.00 | 0.69 | 0.01 | 97 | 1012.2 |
| 20260510111542 | 51 | 0 | 0.0 | 2.0 | 0.00 | 0.69 | 0.01 | 97 | 1011.9 |
| 20260510111025 | 52 | 255 | 0.0 | 1.0 | 0.00 | 0.69 | 0.01 | 97 | 1011.9 |
| 20260510110528 | 51 | 0 | 0.0 | 1.0 | 0.00 | 0.69 | 0.01 | 97 | 1011.7 |
| 20260510110042 | 51 | 0 | 0.0 | 1.0 | 0.00 | 0.69 | 0.01 | 97 | 1011.7 |
| 20260510105525 | 51 | 97 | 0.0 | 1.0 | 0.00 | 0.69 | 0.01 | 97 | 1011.6 |
| 20260510105024 | 51 | 0 | 0.0 | 1.0 | 0.00 | 0.69 | 0.01 | 97 | 1011.7 |
| 20260510104543 | 50 | 0 | 0.0 | 1.0 | 0.00 | 0.69 | 0.01 | 97 | 1011.7 |
| 20260510104024 | 49 | 262 | 0.0 | 1.0 | 0.00 | 0.69 | 0.01 | 97 | 1011.5 |
| 20260510103526 | 49 | 150 | 0.0 | 1.0 | 0.00 | 0.69 | 0.01 | 97 | 1011.4 |
| 20260510103038 | 49 | 0 | 0.0 | 1.0 | 0.00 | 0.69 | 0.01 | 97 | 1011.4 |
| 20260510102530 | 49 | 0 | 0.0 | 1.0 | 0.00 | 0.69 | 0.01 | 97 | 1011.6 |
| 20260510102028 | 49 | 0 | 0.0 | 1.0 | 0.00 | 0.69 | 0.01 | 97 | 1011.6 |
| 20260510101537 | 48 | 0 | 0.0 | 1.0 | 0.00 | 0.69 | 0.01 | 97 | 1011.6 |
| 20260510101031 | 49 | 0 | 0.0 | 1.0 | 0.00 | 0.69 | 0.01 | 97 | 1011.6 |
| 20260510100529 | 49 | 0 | 0.0 | 1.0 | 0.00 | 0.69 | 0.01 | 97 | 1011.7 |
| 20260510100057 | 48 | 0 | 0.0 | 1.0 | 0.00 | 0.69 | 0.01 | 97 | 1011.6 |
| 20260510095530 | 48 | 0 | 0.0 | 1.0 | 0.00 | 0.69 | 0.01 | 97 | 1011.6 |
| 20260510095027 | 48 | 0 | 0.0 | 0.0 | 0.00 | 0.69 | 0.01 | 97 | 1011.8 |
| 20260510094540 | 48 | 0 | 0.0 | 0.0 | 0.00 | 0.69 | 0.01 | 97 | 1011.8 |
| 20260510094026 | 48 | 0 | 0.0 | 0.0 | 0.00 | 0.69 | 0.01 | 97 | 1011.7 |
| 20260510093529 | 48 | 0 | 0.0 | 0.0 | 0.00 | 0.69 | 0.01 | 97 | 1011.6 |
| 20260510093038 | 48 | 0 | 0.0 | 0.0 | 0.00 | 0.69 | 0.01 | 97 | 1011.6 |
| 20260510092529 | 48 | 0 | 0.0 | 0.0 | 0.00 | 0.69 | 0.01 | 97 | 1011.5 |
| 20260510092029 | 47 | 0 | 0.0 | 0.0 | 0.00 | 0.69 | 0.01 | 97 | 1011.6 |
| 20260510091537 | 47 | 0 | 0.0 | 0.0 | 0.00 | 0.69 | 0.01 | 97 | 1011.5 |
| 20260510091028 | 47 | 0 | 0.0 | 0.0 | 0.00 | 0.69 | 0.01 | 97 | 1011.4 |
| 20260510090528 | 47 | 0 | 0.0 | 0.0 | 0.00 | 0.69 | 0.01 | 97 | 1011.4 |
| 20260510090038 | 47 | 0 | 0.0 | 0.0 | 0.00 | 0.69 | 0.01 | 97 | 1011.3 |
| 20260510085527 | 46 | 0 | 0.0 | 0.0 | 0.00 | 0.69 | 0.01 | 97 | 1011.3 |
| 20260510085028 | 46 | 0 | 0.0 | 0.0 | 0.00 | 0.69 | 0.01 | 97 | 1011.3 |
| 20260510084542 | 46 | 0 | 0.0 | 0.0 | 0.00 | 0.69 | 0.01 | 96 | 1011.3 |
| 20260510084028 | 46 | 0 | 0.0 | 0.0 | 0.00 | 0.69 | 0.01 | 96 | 1011.3 |
| 20260510083527 | 46 | 0 | 0.0 | 0.0 | 0.00 | 0.69 | 0.01 | 96 | 1011.2 |
| 20260510083043 | 47 | 0 | 0.0 | 0.0 | 0.00 | 0.69 | 0.01 | 96 | 1011.2 |
| 20260510082529 | 47 | 0 | 0.0 | 0.0 | 0.00 | 0.69 | 0.01 | 97 | 1011.0 |
| 20260510082028 | 47 | 0 | 0.0 | 0.0 | 0.01 | 0.69 | 0.01 | 97 | 1011.2 |
| 20260510081539 | 47 | 0 | 0.0 | 0.0 | 0.01 | 0.69 | 0.01 | 97 | 1011.1 |
| 20260510081026 | 47 | 0 | 0.0 | 0.0 | 0.01 | 0.69 | 0.01 | 97 | 1011.0 |
| 20260510080525 | 47 | 0 | 0.0 | 0.0 | 0.01 | 0.69 | 0.01 | 97 | 1011.0 |
| 20260510080038 | 47 | 0 | 0.0 | 0.0 | 0.01 | 0.69 | 0.01 | 97 | 1011.0 |
| 20260510075532 | 47 | 0 | 0.0 | 0.0 | 0.01 | 0.69 | 0.01 | 96 | 1010.9 |
| 20260510075028 | 47 | 0 | 0.0 | 0.0 | 0.01 | 0.69 | 0.01 | 96 | 1010.9 |
| 20260510074543 | 47 | 0 | 0.0 | 0.0 | 0.01 | 0.69 | 0.01 | 96 | 1011.0 |
| 20260510074028 | 47 | 0 | 0.0 | 0.0 | 0.01 | 0.69 | 0.01 | 96 | 1010.9 |
| 20260510073525 | 47 | 0 | 0.0 | 1.0 | 0.01 | 0.69 | 0.01 | 96 | 1010.9 |
| 20260510073048 | 48 | 0 | 0.0 | 1.0 | 0.01 | 0.69 | 0.01 | 96 | 1010.9 |
| 20260510072528 | 48 | 0 | 0.0 | 1.0 | 0.01 | 0.69 | 0.01 | 96 | 1010.9 |
| 20260510072029 | 48 | 0 | 0.0 | 1.0 | 0.00 | 0.68 | 0.00 | 96 | 1010.8 |
| 20260510071542 | 49 | 0 | 0.0 | 1.0 | 0.00 | 0.68 | 0.00 | 96 | 1010.7 |
| 20260510071026 | 49 | 0 | 0.0 | 1.0 | 0.00 | 0.68 | 0.00 | 96 | 1010.7 |
| 20260510070526 | 49 | 0 | 0.0 | 0.0 | 0.00 | 0.68 | 0.00 | 96 | 1010.8 |
| 20260510070052 | 49 | 0 | 0.0 | 0.0 | 0.00 | 0.68 | 0.00 | 96 | 1010.7 |
| 20260510065526 | 49 | 0 | 0.0 | 1.0 | 0.00 | 0.68 | 0.00 | 96 | 1010.4 |
| 20260510065025 | 49 | 0 | 0.0 | 1.0 | 0.00 | 0.68 | 0.00 | 96 | 1010.4 |
| 20260510064543 | 49 | 0 | 0.0 | 1.0 | 0.00 | 0.68 | 0.00 | 96 | 1010.6 |
| 20260510064025 | 49 | 0 | 0.0 | 0.0 | 0.00 | 0.68 | 0.00 | 96 | 1011.0 |
| 20260510063528 | 49 | 0 | 0.0 | 0.0 | 0.00 | 0.68 | 0.00 | 96 | 1010.9 |
| 20260510063042 | 50 | 0 | 0.0 | 0.0 | 0.00 | 0.68 | 0.00 | 96 | 1010.9 |
| 20260510062526 | 50 | 0 | 0.0 | 0.0 | 0.00 | 0.68 | 0.00 | 96 | 1010.9 |
| 20260510062025 | 50 | 0 | 0.0 | 0.0 | 0.00 | 0.68 | 0.00 | 96 | 1011.0 |
| 20260510061538 | 50 | 0 | 0.0 | 0.0 | 0.00 | 0.68 | 0.00 | 96 | 1011.0 |
| 20260510061026 | 50 | 0 | 0.0 | 1.0 | 0.00 | 0.68 | 0.00 | 96 | 1011.1 |
| 20260510060526 | 50 | 0 | 0.0 | 1.0 | 0.00 | 0.68 | 0.00 | 96 | 1011.1 |
| 20260510060042 | 50 | 0 | 0.0 | 0.0 | 0.00 | 0.68 | 0.00 | 96 | 1010.9 |
| 20260510055526 | 50 | 0 | 0.0 | 0.0 | 0.00 | 0.68 | 0.00 | 96 | 1010.8 |
| 20260510055024 | 50 | 0 | 0.0 | 0.0 | 0.00 | 0.68 | 0.00 | 96 | 1011.1 |
| 20260510054542 | 49 | 0 | 0.0 | 0.0 | 0.00 | 0.68 | 0.00 | 96 | 1011.2 |
| 20260510054027 | 49 | 0 | 0.0 | 0.0 | 0.00 | 0.68 | 0.00 | 96 | 1011.2 |
| 20260510053524 | 49 | 0 | 0.0 | 0.0 | 0.00 | 0.68 | 0.00 | 96 | 1011.1 |
| 20260510053036 | 49 | 0 | 0.0 | 0.0 | 0.00 | 0.68 | 0.00 | 96 | 1011.2 |
| 20260510052526 | 49 | 0 | 0.0 | 0.0 | 0.00 | 0.68 | 0.00 | 96 | 1011.4 |
| 20260510052023 | 49 | 0 | 0.0 | 0.0 | 0.00 | 0.68 | 0.00 | 96 | 1011.3 |
| 20260510051539 | 50 | 0 | 0.0 | 0.0 | 0.00 | 0.68 | 0.00 | 96 | 1011.3 |
| 20260510051026 | 50 | 0 | 0.0 | 0.0 | 0.00 | 0.68 | 0.00 | 96 | 1011.3 |
| 20260510050526 | 50 | 0 | 0.0 | 0.0 | 0.00 | 0.68 | 0.00 | 96 | 1011.3 |
| 20260510050041 | 50 | 0 | 0.0 | 0.0 | 0.00 | 0.68 | 0.00 | 96 | 1011.4 |
| 20260510045531 | 50 | 0 | 0.0 | 0.0 | 0.00 | 0.68 | 0.00 | 96 | 1011.3 |
| 20260510045026 | 50 | 0 | 0.0 | 0.0 | 0.00 | 0.68 | 0.00 | 96 | 1011.3 |
| 20260510044540 | 49 | 0 | 0.0 | 0.0 | 0.00 | 0.68 | 0.00 | 96 | 1011.4 |
| 20260510044026 | 49 | 0 | 0.0 | 0.0 | 0.00 | 0.68 | 0.00 | 96 | 1011.5 |
| 20260510043526 | 49 | 0 | 0.0 | 0.0 | 0.00 | 0.68 | 0.00 | 96 | 1011.6 |
| 20260510043037 | 49 | 0 | 0.0 | 0.0 | 0.00 | 0.68 | 0.00 | 96 | 1011.6 |
| 20260510042529 | 49 | 0 | 0.0 | 0.0 | 0.00 | 0.68 | 0.00 | 96 | 1011.6 |
| 20260510042025 | 49 | 0 | 0.0 | 0.0 | 0.00 | 0.68 | 0.00 | 96 | 1011.3 |
| 20260510041547 | 49 | 0 | 0.0 | 0.0 | 0.00 | 0.68 | 0.00 | 96 | 1011.5 |
| 20260510041026 | 49 | 0 | 0.0 | 1.0 | 0.00 | 0.68 | 0.00 | 96 | 1011.4 |
| 20260510040526 | 49 | 0 | 0.0 | 1.0 | 0.00 | 0.68 | 0.00 | 96 | 1011.3 |
| 20260510040038 | 50 | 0 | 0.0 | 0.0 | 0.00 | 0.68 | 0.00 | 96 | 1010.9 |
| 20260510035525 | 50 | 0 | 0.0 | 0.0 | 0.00 | 0.68 | 0.68 | 96 | 1011.2 |
| 20260510035028 | 50 | 0 | 0.0 | 0.0 | 0.00 | 0.68 | 0.68 | 96 | 1011.3 |
| 20260510034545 | 50 | 0 | 0.0 | 0.0 | 0.00 | 0.68 | 0.68 | 96 | 1011.4 |
| 20260510034025 | 50 | 0 | 0.0 | 0.0 | 0.00 | 0.68 | 0.68 | 96 | 1011.3 |
| 20260510033524 | 50 | 0 | 0.0 | 0.0 | 0.00 | 0.68 | 0.68 | 96 | 1011.3 |
| 20260510033048 | 50 | 0 | 0.0 | 1.0 | 0.00 | 0.68 | 0.68 | 96 | 1011.4 |
| 20260510032526 | 50 | 0 | 0.0 | 1.0 | 0.00 | 0.68 | 0.68 | 96 | 1011.4 |
| 20260510032027 | 50 | 0 | 0.0 | 1.0 | 0.00 | 0.68 | 0.68 | 96 | 1011.6 |
| 20260510031538 | 50 | 0 | 0.0 | 1.0 | 0.00 | 0.68 | 0.68 | 96 | 1011.8 |
| 20260510031026 | 50 | 0 | 0.0 | 0.0 | 0.00 | 0.68 | 0.68 | 96 | 1011.9 |
| 20260510030526 | 50 | 0 | 0.0 | 0.0 | 0.00 | 0.68 | 0.68 | 96 | 1011.9 |
| 20260510030038 | 50 | 0 | 0.0 | 0.0 | 0.00 | 0.68 | 0.68 | 96 | 1011.9 |
| 20260510025528 | 50 | 0 | 0.0 | 0.0 | 0.00 | 0.68 | 0.68 | 96 | 1011.9 |
| 20260510025026 | 50 | 0 | 0.0 | 0.0 | 0.00 | 0.68 | 0.68 | 96 | 1012.0 |
| 20260510024545 | 50 | 0 | 0.0 | 0.0 | 0.00 | 0.68 | 0.68 | 96 | 1012.1 |
| 20260510024026 | 50 | 0 | 0.0 | 0.0 | 0.00 | 0.68 | 0.68 | 96 | 1012.1 |
| 20260510023526 | 50 | 0 | 0.0 | 0.0 | 0.00 | 0.68 | 0.68 | 96 | 1012.2 |
| 20260510023039 | 50 | 0 | 0.0 | 0.0 | 0.00 | 0.68 | 0.68 | 96 | 1012.1 |
| 20260510022528 | 50 | 0 | 0.0 | 0.0 | 0.00 | 0.68 | 0.68 | 96 | 1012.1 |
| 20260510022026 | 50 | 0 | 0.0 | 0.0 | 0.00 | 0.68 | 0.68 | 96 | 1012.1 |
| 20260510021541 | 50 | 0 | 0.0 | 0.0 | 0.00 | 0.68 | 0.68 | 96 | 1012.1 |
| 20260510021023 | 50 | 0 | 0.0 | 0.0 | 0.00 | 0.68 | 0.68 | 96 | 1012.0 |
| 20260510020526 | 50 | 0 | 0.0 | 1.0 | 0.00 | 0.68 | 0.68 | 96 | 1012.1 |
| 20260510020036 | 50 | 0 | 0.0 | 1.0 | 0.00 | 0.68 | 0.68 | 96 | 1012.2 |
| 20260510015527 | 50 | 0 | 0.0 | 1.0 | 0.00 | 0.68 | 0.68 | 96 | 1012.2 |
| 20260510015026 | 50 | 0 | 0.0 | 1.0 | 0.00 | 0.68 | 0.68 | 96 | 1012.2 |
| 20260510014544 | 50 | 0 | 0.0 | 1.0 | 0.00 | 0.68 | 0.68 | 96 | 1012.2 |
| 20260510014026 | 50 | 0 | 0.0 | 1.0 | 0.00 | 0.68 | 0.68 | 96 | 1012.2 |
| 20260510013526 | 50 | 0 | 0.0 | 1.0 | 0.00 | 0.68 | 0.68 | 96 | 1012.2 |
| 20260510013042 | 49 | 0 | 0.0 | 2.0 | 0.00 | 0.68 | 0.68 | 96 | 1012.2 |
| 20260510012527 | 49 | 0 | 0.0 | 2.0 | 0.01 | 0.68 | 0.68 | 96 | 1012.2 |
| 20260510012026 | 49 | 0 | 0.0 | 0.0 | 0.01 | 0.68 | 0.68 | 96 | 1012.0 |
| 20260510011539 | 48 | 0 | 0.0 | 0.0 | 0.02 | 0.68 | 0.68 | 96 | 1011.9 |
| 20260510011025 | 48 | 0 | 0.0 | 0.0 | 0.03 | 0.68 | 0.68 | 95 | 1011.8 |
| 20260510010525 | 48 | 0 | 0.0 | 0.0 | 0.03 | 0.68 | 0.68 | 95 | 1011.7 |
| 20260510010036 | 48 | 0 | 0.0 | 1.0 | 0.05 | 0.68 | 0.68 | 96 | 1011.7 |
| 20260510005527 | 48 | 0 | 0.0 | 1.0 | 0.06 | 0.68 | 0.68 | 95 | 1011.7 |
| 20260510005025 | 48 | 153 | 0.0 | 1.0 | 0.07 | 0.68 | 0.68 | 95 | 1011.7 |
| 20260510004536 | 48 | 153 | 0.0 | 2.0 | 0.09 | 0.68 | 0.68 | 95 | 1011.7 |
| 20260510004025 | 48 | 153 | 0.0 | 2.0 | 0.10 | 0.68 | 0.68 | 95 | 1011.9 |
| 20260510003528 | 48 | 352 | 0.0 | 2.0 | 0.11 | 0.68 | 0.68 | 95 | 1011.9 |
| 20260510003053 | 48 | 267 | 0.0 | 2.0 | 0.13 | 0.68 | 0.68 | 95 | 1012.0 |
| 20260510002525 | 48 | 0 | 0.0 | 2.0 | 0.13 | 0.67 | 0.67 | 95 | 1011.9 |
| 20260510002023 | 48 | 0 | 0.0 | 2.0 | 0.14 | 0.67 | 0.67 | 95 | 1011.9 |
| 20260510001544 | 48 | 159 | 0.0 | 2.0 | 0.15 | 0.66 | 0.66 | 95 | 1011.9 |
| 20260510001027 | 47 | 141 | 1.0 | 2.0 | 0.14 | 0.65 | 0.65 | 95 | 1012.0 |
| 20260510000526 | 47 | 144 | 0.0 | 1.0 | 0.14 | 0.64 | 0.64 | 95 | 1012.2 |
| 20260510000048 | 47 | 0 | 0.0 | 1.0 | 0.13 | 0.63 | 0.63 | 95 | 1012.4 |
| 20260509235525 | 47 | 151 | 0.0 | 1.0 | 0.13 | 0.62 | 0.62 | 95 | 1012.3 |
| 20260509235032 | 47 | 0 | 0.0 | 1.0 | 0.12 | 0.60 | 0.60 | 95 | 1012.2 |
| 20260509234545 | 47 | 0 | 0.0 | 1.0 | 0.11 | 0.58 | 0.58 | 95 | 1012.2 |
| 20260509234030 | 47 | 119 | 0.0 | 1.0 | 0.11 | 0.58 | 0.58 | 95 | 1012.3 |
| 20260509233525 | 47 | 0 | 0.0 | 1.0 | 0.09 | 0.56 | 0.56 | 95 | 1012.4 |
| 20260509233043 | 47 | 0 | 0.0 | 1.0 | 0.09 | 0.55 | 0.55 | 95 | 1012.3 |
| 20260509232525 | 47 | 0 | 0.0 | 1.0 | 0.08 | 0.54 | 0.54 | 94 | 1012.4 |
| 20260509232027 | 47 | 115 | 0.0 | 1.0 | 0.06 | 0.52 | 0.52 | 95 | 1012.2 |
| 20260509231539 | 47 | 115 | 0.0 | 1.0 | 0.06 | 0.51 | 0.51 | 94 | 1012.2 |
| 20260509231026 | 47 | 0 | 0.0 | 2.0 | 0.05 | 0.50 | 0.50 | 94 | 1012.0 |
| 20260509230525 | 47 | 120 | 0.0 | 2.0 | 0.05 | 0.50 | 0.50 | 94 | 1011.9 |
| 20260509230036 | 47 | 179 | 0.0 | 2.0 | 0.06 | 0.50 | 0.50 | 94 | 1011.8 |
| 20260509225525 | 47 | 23 | 0.0 | 1.0 | 0.05 | 0.49 | 0.49 | 94 | 1011.8 |
| 20260509225025 | 47 | 79 | 0.0 | 1.0 | 0.04 | 0.48 | 0.48 | 94 | 1011.8 |
| 20260509224536 | 48 | 120 | 0.0 | 2.0 | 0.05 | 0.48 | 0.48 | 94 | 1011.8 |
| 20260509224026 | 48 | 112 | 0.0 | 2.0 | 0.04 | 0.47 | 0.47 | 94 | 1011.8 |
| 20260509223525 | 48 | 0 | 0.0 | 1.0 | 0.05 | 0.47 | 0.47 | 94 | 1011.9 |
| 20260509223045 | 48 | 101 | 0.0 | 1.0 | 0.04 | 0.46 | 0.46 | 94 | 1012.0 |
| 20260509222524 | 48 | 0 | 0.0 | 1.0 | 0.05 | 0.46 | 0.46 | 94 | 1011.9 |
| 20260509222029 | 48 | 99 | 0.0 | 1.0 | 0.07 | 0.46 | 0.46 | 94 | 1012.0 |
| 20260509221536 | 48 | 0 | 0.0 | 1.0 | 0.09 | 0.45 | 0.45 | 94 | 1012.0 |
| 20260509221028 | 48 | 0 | 0.0 | 3.0 | 0.11 | 0.45 | 0.45 | 94 | 1012.1 |
| 20260509220525 | 48 | 88 | 0.0 | 3.0 | 0.13 | 0.45 | 0.45 | 94 | 1012.2 |
| 20260509220052 | 48 | 0 | 0.0 | 2.0 | 0.15 | 0.44 | 0.44 | 94 | 1012.3 |
| 20260509215524 | 48 | 0 | 0.0 | 3.0 | 0.16 | 0.44 | 0.44 | 94 | 1012.3 |
| 20260509215028 | 48 | 349 | 1.0 | 3.0 | 0.18 | 0.44 | 0.44 | 94 | 1012.4 |
| 20260509214550 | 48 | 65 | 0.0 | 3.0 | 0.18 | 0.43 | 0.43 | 94 | 1012.2 |
| 20260509214025 | 48 | 0 | 0.0 | 4.0 | 0.20 | 0.43 | 0.43 | 94 | 1012.0 |
| 20260509213530 | 48 | 0 | 1.0 | 4.0 | 0.21 | 0.42 | 0.42 | 94 | 1012.4 |
| 20260509213042 | 48 | 353 | 1.0 | 4.0 | 0.23 | 0.42 | 0.42 | 94 | 1012.3 |
| 20260509212526 | 48 | 333 | 0.0 | 3.0 | 0.23 | 0.41 | 0.41 | 94 | 1012.1 |
| 20260509212026 | 48 | 0 | 1.0 | 3.0 | 0.21 | 0.38 | 0.38 | 93 | 1012.2 |
| 20260509211543 | 48 | 0 | 0.0 | 3.0 | 0.19 | 0.36 | 0.36 | 93 | 1012.3 |
| 20260509211025 | 49 | 274 | 0.0 | 3.0 | 0.17 | 0.34 | 0.34 | 93 | 1012.1 |
| 20260509210525 | 49 | 0 | 0.0 | 3.0 | 0.15 | 0.32 | 0.32 | 93 | 1012.1 |
| 20260509210039 | 49 | 359 | 1.0 | 3.0 | 0.12 | 0.29 | 0.29 | 93 | 1012.3 |
| 20260509205526 | 49 | 0 | 0.0 | 3.0 | 0.11 | 0.28 | 0.28 | 93 | 1012.1 |
| 20260509205024 | 49 | 354 | 0.0 | 4.0 | 0.09 | 0.26 | 0.26 | 93 | 1012.0 |
| 20260509204556 | 49 | 95 | 1.0 | 4.0 | 0.07 | 0.24 | 0.24 | 92 | 1012.0 |
| 20260509204024 | 49 | 0 | 0.0 | 2.0 | 0.05 | 0.22 | 0.22 | 92 | 1012.2 |
| 20260509203524 | 49 | 0 | 0.0 | 2.0 | 0.04 | 0.21 | 0.21 | 92 | 1012.2 |
| 20260509203043 | 49 | 0 | 0.0 | 4.0 | 0.01 | 0.18 | 0.18 | 92 | 1012.2 |
| 20260509202526 | 50 | 324 | 1.0 | 4.0 | 0.01 | 0.18 | 0.18 | 92 | 1012.1 |
| 20260509202026 | 50 | 0 | 0.0 | 3.0 | 0.00 | 0.17 | 0.17 | 91 | 1012.2 |
| 20260509201543 | 50 | 266 | 1.0 | 3.0 | 0.00 | 0.17 | 0.17 | 91 | 1012.2 |
| 20260509201024 | 50 | 96 | 1.0 | 3.0 | 0.00 | 0.17 | 0.17 | 91 | 1012.2 |
| 20260509200525 | 50 | 357 | 0.0 | 2.0 | 0.00 | 0.17 | 0.17 | 92 | 1012.2 |
| 20260509200041 | 50 | 3 | 0.0 | 1.0 | 0.00 | 0.17 | 0.17 | 92 | 1012.2 |
| 20260509195526 | 50 | 341 | 0.0 | 2.0 | 0.00 | 0.17 | 0.17 | 91 | 1012.3 |
| 20260509195028 | 50 | 0 | 0.0 | 2.0 | 0.00 | 0.17 | 0.17 | 91 | 1012.3 |
| 20260509194542 | 50 | 0 | 0.0 | 1.0 | 0.00 | 0.17 | 0.17 | 91 | 1012.3 |
| 20260509194028 | 50 | 71 | 0.0 | 1.0 | 0.00 | 0.17 | 0.17 | 91 | 1012.1 |
| 20260509193525 | 50 | 0 | 0.0 | 2.0 | 0.00 | 0.17 | 0.17 | 91 | 1012.2 |
| 20260509193043 | 50 | 0 | 0.0 | 3.0 | 0.00 | 0.17 | 0.17 | 91 | 1012.2 |
| 20260509192529 | 50 | 0 | 0.0 | 3.0 | 0.00 | 0.17 | 0.17 | 91 | 1012.1 |
| 20260509192027 | 50 | 0 | 2.0 | 3.0 | 0.00 | 0.17 | 0.17 | 90 | 1012.1 |
| 20260509191546 | 51 | 94 | 0.0 | 6.0 | 0.00 | 0.17 | 0.17 | 91 | 1011.9 |
| 20260509191025 | 51 | 125 | 1.0 | 6.0 | 0.00 | 0.17 | 0.17 | 91 | 1011.9 |
| 20260509190532 | 51 | 294 | 1.0 | 5.0 | 0.00 | 0.17 | 0.17 | 91 | 1011.6 |
| 20260509190044 | 51 | 4 | 0.0 | 3.0 | 0.00 | 0.17 | 0.17 | 91 | 1012.1 |
| 20260509185525 | 51 | 340 | 0.0 | 3.0 | 0.00 | 0.17 | 0.17 | 91 | 1012.1 |
| 20260509185028 | 51 | 80 | 1.0 | 3.0 | 0.00 | 0.17 | 0.17 | 91 | 1011.9 |
| 20260509184540 | 51 | 16 | 1.0 | 4.0 | 0.01 | 0.17 | 0.17 | 90 | 1012.1 |
| 20260509184024 | 51 | 340 | 0.0 | 4.0 | 0.01 | 0.17 | 0.17 | 91 | 1012.2 |
| 20260509183525 | 51 | 321 | 0.0 | 4.0 | 0.01 | 0.17 | 0.17 | 90 | 1012.5 |
| 20260509183043 | 51 | 335 | 0.0 | 4.0 | 0.01 | 0.17 | 0.17 | 91 | 1012.4 |
| 20260509182524 | 50 | 309 | 0.0 | 4.0 | 0.01 | 0.17 | 0.17 | 89 | 1012.7 |
| 20260509182024 | 50 | 0 | 1.0 | 4.0 | 0.01 | 0.17 | 0.17 | 89 | 1012.6 |
| 20260509181538 | 50 | 107 | 0.0 | 2.0 | 0.01 | 0.17 | 0.17 | 90 | 1013.0 |
| 20260509181025 | 50 | 21 | 0.0 | 2.0 | 0.01 | 0.17 | 0.17 | 91 | 1013.1 |
| 20260509180529 | 50 | 344 | 0.0 | 2.0 | 0.02 | 0.17 | 0.17 | 90 | 1013.1 |
| 20260509180035 | 50 | 349 | 0.0 | 2.0 | 0.02 | 0.17 | 0.17 | 91 | 1012.9 |
| 20260509175527 | 50 | 0 | 0.0 | 1.0 | 0.02 | 0.17 | 0.17 | 91 | 1013.0 |
| 20260509175026 | 49 | 300 | 0.0 | 2.0 | 0.02 | 0.17 | 0.17 | 90 | 1013.1 |
| 20260509174554 | 49 | 0 | 0.0 | 2.0 | 0.01 | 0.16 | 0.16 | 90 | 1013.1 |
| 20260509174024 | 49 | 0 | 0.0 | 2.0 | 0.01 | 0.16 | 0.16 | 90 | 1013.1 |
| 20260509173526 | 49 | 350 | 0.0 | 5.0 | 0.01 | 0.16 | 0.16 | 89 | 1013.3 |
| 20260509173045 | 49 | 0 | 1.0 | 5.0 | 0.02 | 0.16 | 0.16 | 89 | 1013.1 |
| 20260509172526 | 50 | 16 | 0.0 | 2.0 | 0.02 | 0.16 | 0.16 | 90 | 1013.1 |
| 20260509172024 | 50 | 106 | 0.0 | 2.0 | 0.02 | 0.16 | 0.16 | 90 | 1013.2 |
| 20260509171541 | 49 | 38 | 0.0 | 1.0 | 0.02 | 0.16 | 0.16 | 89 | 1013.2 |
| 20260509171024 | 49 | 0 | 0.0 | 2.0 | 0.03 | 0.16 | 0.16 | 88 | 1013.4 |
| 20260509170526 | 49 | 0 | 0.0 | 2.0 | 0.02 | 0.15 | 0.15 | 89 | 1013.6 |
| 20260509170038 | 49 | 321 | 0.0 | 4.0 | 0.03 | 0.15 | 0.15 | 89 | 1013.6 |
| 20260509165526 | 49 | 0 | 0.0 | 4.0 | 0.03 | 0.15 | 0.15 | 90 | 1013.5 |
| 20260509165029 | 49 | 100 | 0.0 | 3.0 | 0.03 | 0.15 | 0.15 | 90 | 1013.5 |
| 20260509164536 | 49 | 105 | 0.0 | 3.0 | 0.04 | 0.15 | 0.15 | 91 | 1013.6 |
| 20260509164026 | 49 | 106 | 0.0 | 2.0 | 0.04 | 0.15 | 0.15 | 90 | 1013.7 |
| 20260509163524 | 49 | 0 | 0.0 | 1.0 | 0.04 | 0.15 | 0.15 | 91 | 1013.6 |
| 20260509163040 | 48 | 59 | 0.0 | 1.0 | 0.04 | 0.14 | 0.14 | 90 | 1013.6 |
| 20260509162527 | 48 | 59 | 0.0 | 1.0 | 0.04 | 0.14 | 0.14 | 90 | 1013.6 |
| 20260509162033 | 48 | 0 | 0.0 | 1.0 | 0.04 | 0.14 | 0.14 | 89 | 1013.6 |
| 20260509161540 | 48 | 0 | 0.0 | 1.0 | 0.04 | 0.14 | 0.14 | 89 | 1013.7 |
| 20260509161029 | 48 | 0 | 0.0 | 1.0 | 0.04 | 0.13 | 0.13 | 90 | 1013.7 |
| 20260509160527 | 48 | 0 | 0.0 | 3.0 | 0.04 | 0.13 | 0.13 | 89 | 1013.6 |
| 20260509160039 | 48 | 17 | 0.0 | 3.0 | 0.03 | 0.12 | 0.12 | 90 | 1013.5 |
| 20260509155525 | 48 | 1 | 0.0 | 2.0 | 0.03 | 0.12 | 0.12 | 89 | 1013.5 |
| 20260509155025 | 48 | 345 | 0.0 | 4.0 | 0.04 | 0.12 | 0.12 | 89 | 1013.5 |
| 20260509154541 | 48 | 122 | 1.0 | 4.0 | 0.03 | 0.11 | 0.11 | 89 | 1013.6 |
| 20260509154027 | 48 | 342 | 0.0 | 3.0 | 0.03 | 0.11 | 0.11 | 88 | 1013.7 |
| 20260509153525 | 48 | 147 | 0.0 | 2.0 | 0.03 | 0.11 | 0.11 | 90 | 1013.7 |
| 20260509153036 | 48 | 340 | 0.0 | 1.0 | 0.03 | 0.10 | 0.10 | 90 | 1013.8 |
| 20260509152526 | 47 | 0 | 0.0 | 1.0 | 0.03 | 0.10 | 0.10 | 90 | 1013.9 |
| 20260509152024 | 47 | 341 | 0.0 | 1.0 | 0.03 | 0.10 | 0.10 | 90 | 1014.0 |
| 20260509151535 | 47 | 91 | 0.0 | 1.0 | 0.04 | 0.10 | 0.10 | 90 | 1014.0 |
| 20260509151026 | 47 | 0 | 0.0 | 1.0 | 0.03 | 0.09 | 0.09 | 89 | 1014.2 |
| 20260509150526 | 46 | 0 | 0.0 | 1.0 | 0.03 | 0.09 | 0.09 | 89 | 1014.2 |
| 20260509150040 | 46 | 0 | 0.0 | 1.0 | 0.04 | 0.09 | 0.09 | 88 | 1014.3 |
| 20260509145526 | 46 | 0 | 0.0 | 0.0 | 0.04 | 0.09 | 0.09 | 88 | 1014.3 |
| 20260509145026 | 46 | 0 | 0.0 | 0.0 | 0.03 | 0.08 | 0.08 | 89 | 1014.4 |